Location: Gro�sch�nbrunn
(49.5760°N, 11.8868°E)
Time: 03:20:56
(UTC+00:00)

USA 234 - Pass Details

Date: 18 September 2020
Orbit: 1102 x 1106 km, 123.0° (Epoch: 16 October)

Event Time Altitude Azimuth Distance (km) Brightness Sun altitude
Rises 18:32:50 0° 58° (ENE) 3,927 5.8 -12.7°
Reaches altitude 10° 18:35:37 10° 68° (ENE) 2,967 5.1 -13.1°
Maximum altitude 18:41:26 33° 130° (SE) 1,756 3.8 -14.0°
Drops below altitude 10° 18:47:14 10° 193° (SSW) 2,956 5.4 -14.9°
Sets 18:49:59 0° 203° (SSW) 3,911 6.2 -15.3°
